RH
60 64 70 69 75 82 77 66 62 63 61 48 59 59 61 58 62 63 59 61 57 59 61 63 61 60 58 59 58 52 48 47 44 42 42 43 45 44 46 50 54 54 54 55 55 55 60 59 59
62 67 71 71 78 82 79 77 68 64 67 62 60 55 52 48 57 57 60 58 55 60 62 60 63 63 60 59 59 53 52 49 44 42 40 42 43 49 56 57 56 54 50 53 60 64 70 65 65
64 68 75 77 79 83 83 79 70 67 76 70 64 54 45 42 54 55 57 58 58 63 66 64 65 66 66 63 62 56 56 54 52 44 39 41 43 51 55 56 54 49 44 48 52 57 62 64 72
69 67 74 79 81 80 84 82 76 71 74 71 69 58 45 45 46 53 57 58 60 67 69 70 71 71 69 65 66 63 63 63 61 50 40 44 49 56 55 54 50 45 45 46 47 50 57 59 66
78 71 79 72 82 72 87 71 76 78 71 68 71 69 57 52 49 52 57 58 62 68 72 75 74 73 73 71 69 70 69 70 70 58 43 47 52 55 54 53 52 53 49 44 40 46 54 59 64
68 66 71 63 66 79 69 68 80 65 72 77 79 77 67 51 49 52 52 58 63 68 71 75 77 76 75 75 78 79 78 79 77 67 49 46 53 55 53 54 56 52 46 45 42 43 50 54 60
67 64 63 59 58 57 59 60 70 69 77 79 74 78 66 55 54 50 57 59 62 66 72 74 77 78 78 78 79 83 83 81 80 72 56 46 51 54 54 55 55 54 48 45 41 44 49 53 55
63 62 58 60 52 50 52 60 58 64 73 69 71 76 69 59 56 48 56 62 65 66 68 71 75 76 77 80 81 82 82 82 80 73 59 48 50 52 57 58 62 63 56 52 45 43 51 51 55
54 58 61 55 50 46 47 56 64 68 57 63 64 71 70 68 72 53 56 55 65 67 68 70 77 77 78 80 82 85 86 82 80 75 58 51 49 53 64 69 73 69 60 57 50 45 46 52 48
51 49 45 45 42 45 43 52 52 52 50 57 64 67 71 75 73 59 52 56 64 70 67 68 75 75 77 82 84 89 87 83 78 72 56 50 49 56 67 77 83 78 67 57 61 46 44 43 43
43 37 35 34 38 43 42 44 39 42 45 49 51 55 65 68 73 62 50 50 57 66 70 70 70 75 80 81 87 89 88 82 78 68 57 49 53 64 74 84 81 75 67 61 52 46 52 49 49
33 29 31 33 36 44 45 45 44 42 37 37 40 51 61 63 65 60 54 53 53 60 67 72 72 74 77 78 84 88 90 81 76 69 59 51 63 66 79 81 76 64 60 52 50 50 59 59 54
30 30 35 35 35 39 46 44 39 44 40 35 40 47 54 64 66 61 57 52 53 55 64 69 74 74 74 74 77 81 84 82 77 68 63 51 65 76 83 82 75 64 65 53 46 52 63 68 61
27 34 36 36 33 35 42 41 40 45 43 35 38 42 47 54 60 63 61 58 56 54 59 67 70 71 69 72 81 81 82 83 81 71 65 58 65 78 79 81 73 71 64 70 61 57 59 58 59
33 35 39 35 32 26 31 35 39 40 42 41 42 41 46 50 53 53 56 57 58 52 58 63 67 73 71 73 84 80 81 81 83 78 65 67 60 76 80 79 84 76 70 60 53 53 63 65 63
34 35 39 35 31 25 24 27 34 38 41 41 44 45 46 48 50 52 52 51 49 51 52 57 62 67 70 74 80 79 81 79 82 79 66 66 56 69 81 81 86 75 68 49 46 60 60 65 63
38 43 40 35 29 23 23 22 31 35 39 40 43 44 47 47 47 45 48 52 48 48 52 53 59 63 69 74 76 76 77 77 82 83 76 66 65 56 72 81 83 80 63 55 57 65 67 65 78
38 42 39 31 27 24 23 21 26 33 33 35 39 43 43 44 45 44 45 47 50 53 53 54 57 60 66 75 76 79 76 77 78 84 81 72 67 52 75 80 84 79 74 66 64 70 88 85 90
29 32 33 33 27 24 27 25 25 30 34 36 35 40 41 38 42 44 40 44 46 49 55 53 56 57 63 69 73 81 81 77 76 79 83 78 64 47 53 67 77 82 83 78 78 77 82 77 79
23 24 24 27 27 25 27 27 27 29 32 33 31 36 39 43 37 41 44 43 43 45 48 54 55 59 60 65 71 78 82 78 76 77 78 80 76 52 49 67 76 81 83 82 83 71 73 73 71
17 18 19 21 22 24 26 29 30 29 29 34 32 34 35 39 37 38 37 38 41 41 41 46 53 56 57 64 67 76 81 78 75 77 77 79 79 67 55 66 73 79 79 82 79 71 72 73 72
17 17 21 20 24 27 26 31 28 30 30 33 34 37 40 37 42 38 35 37 38 39 40 44 49 56 56 57 67 64 64 70 74 75 77 78 81 77 58 60 73 80 81 81 77 70 70 74 78
16 17 24 24 26 32 30 30 29 33 32 31 34 39 38 41 42 39 34 36 39 42 44 46 51 58 60 55 55 55 54 56 69 75 72 74 74 72 58 60 64 67 76 75 75 75 73 77 81
17 23 27 32 36 38 34 33 34 36 33 34 37 36 37 43 47 46 35 37 38 40 41 43 46 56 60 58 59 55 55 55 59 70 77 76 76 73 65 58 63 62 71 71 70 70 73 77 79
24 29 32 38 47 41 39 37 37 36 36 43 42 38 42 51 49 50 41 42 44 37 41 44 47 48 52 55 59 60 60 55 55 57 71 76 76 77 75 69 59 63 69 68 64 67 70 73 74
22 29 34 32 45 38 36 37 42 46 43 44 45 42 50 53 62 66 59 49 49 48 40 39 44 51 54 51 51 55 60 58 55 54 57 70 75 78 79 75 73 66 61 66 62 62 69 72 68
24 28 30 30 35 39 42 40 39 46 45 47 45 44 50 64 58 64 67 53 49 49 51 48 44 46 51 55 59 54 51 50 50 52 54 56 64 71 73 77 75 76 73 61 58 58 63 69 74
30 30 32 34 35 45 46 45 44 48 51 51 49 46 46 53 67 86 78 58 49 45 55 60 61 58 50 49 51 52 52 57 53 46 51 52 53 62 70 76 78 73 72 69 61 63 58 62 62
32 29 31 37 37 44 51 49 46 52 52 51 51 50 49 53 64 68 69 60 56 64 59 58 55 56 59 58 55 63 59 54 58 56 51 50 51 49 58 64 69 75 76 74 78 75 60 65 67
29 28 33 39 41 40 46 49 47 55 50 50 52 49 49 54 58 57 57 65 60 61 83 96 56 65 68 59 51 64 76 67 59 57 58 56 55 50 46 52 56 62 66 72 81 81 76 67 70